Time,TemperatureF,DewpointF,PressureIn,WindDirection,WindDirectionDegrees,WindSpeedMPH,WindSpeedGustMPH,Humidity,HourlyPrecipIn,Conditions,Clouds,dailyrainin,SoftwareType,DateUTC
2013-04-19 00:09:00,57.4,53.8,29.89,NNE,22,0.0,-999.0,88,0.02,,,0.22,open2300 v1.10,2013-04-19 05:09:00,
2013-04-19 00:14:00,57.0,53.5,29.89,NNE,22,0.7,-999.0,88,0.02,,,0.22,open2300 v1.10,2013-04-19 05:14:00,
2013-04-19 00:19:00,57.0,53.5,29.90,WNW,292,0.0,-999.0,88,0.00,,,0.22,open2300 v1.10,2013-04-19 05:19:00,
2013-04-19 00:24:00,57.0,53.8,29.91,NNE,22,19.7,-999.0,89,0.02,,,0.24,open2300 v1.10,2013-04-19 05:24:00,
2013-04-19 00:29:00,56.5,53.0,29.91,NW,315,8.5,-999.0,88,0.18,,,0.41,open2300 v1.10,2013-04-19 05:29:00,
2013-04-19 00:34:00,56.3,52.8,29.91,NNE,22,0.0,-999.0,88,0.33,,,0.55,open2300 v1.10,2013-04-19 05:34:00,
2013-04-19 00:39:00,56.3,52.8,29.91,NE,45,5.1,-999.0,88,0.37,,,0.59,open2300 v1.10,2013-04-19 05:39:00,
2013-04-19 00:49:00,55.8,52.6,29.91,North,0,9.8,-999.0,89,0.41,,,0.63,open2300 v1.10,2013-04-19 05:49:00,
2013-04-19 00:54:00,55.2,52.0,29.90,NE,45,3.4,-999.0,89,0.41,,,0.63,open2300 v1.10,2013-04-19 05:54:00,
2013-04-19 00:59:00,54.9,51.7,29.91,North,0,2.0,-999.0,89,0.41,,,0.63,open2300 v1.10,2013-04-19 05:59:00,
2013-04-19 01:09:00,54.3,51.1,29.92,WNW,292,4.5,-999.0,89,0.41,,,0.63,open2300 v1.10,2013-04-19 06:09:00,
2013-04-19 01:14:00,54.3,51.1,29.92,NNW,337,0.7,-999.0,89,0.41,,,0.63,open2300 v1.10,2013-04-19 06:14:00,
2013-04-19 01:24:00,54.1,51.3,29.91,NNE,22,7.2,-999.0,90,0.39,,,0.63,open2300 v1.10,2013-04-19 06:24:00,
2013-04-19 01:29:00,54.1,51.3,29.93,ESE,112,0.0,-999.0,90,0.31,,,0.63,open2300 v1.10,2013-04-19 06:29:00,
2013-04-19 01:34:00,53.8,50.9,29.93,NNE,22,6.3,-999.0,90,0.14,,,0.65,open2300 v1.10,2013-04-19 06:34:00,
2013-04-19 01:39:00,53.4,50.5,29.91,SE,135,6.5,-999.0,90,0.08,,,0.67,open2300 v1.10,2013-04-19 06:39:00,
2013-04-19 01:44:00,53.2,50.4,29.93,NNE,22,1.1,-999.0,90,0.04,,,0.67,open2300 v1.10,2013-04-19 06:44:00,
2013-04-19 01:49:00,52.9,50.0,29.94,NNE,22,13.6,-999.0,90,0.04,,,0.67,open2300 v1.10,2013-04-19 06:49:00,
2013-04-19 01:54:00,52.5,49.6,29.94,North,0,0.0,-999.0,90,0.04,,,0.67,open2300 v1.10,2013-04-19 06:54:00,
2013-04-19 01:59:00,52.5,49.6,29.93,North,0,11.6,-999.0,90,0.04,,,0.67,open2300 v1.10,2013-04-19 06:59:00,
2013-04-19 02:08:00,52.5,49.6,29.93,North,0,11.6,-999.0,90,0.04,,,0.67,open2300 v1.10,2013-04-19 07:08:00,
2013-04-19 02:14:00,52.0,49.1,29.94,NNE,22,0.0,-999.0,90,0.04,,,0.67,open2300 v1.10,2013-04-19 07:14:00,
2013-04-19 02:19:00,52.0,49.1,29.94,North,0,0.0,-999.0,90,0.04,,,0.67,open2300 v1.10,2013-04-19 07:19:00,
2013-04-19 02:24:00,52.0,49.1,29.94,NNE,22,0.7,-999.0,90,0.04,,,0.67,open2300 v1.10,2013-04-19 07:24:00,
2013-04-19 02:29:00,51.6,48.7,29.94,NNE,22,6.9,-999.0,90,0.04,,,0.67,open2300 v1.10,2013-04-19 07:29:00,
2013-04-19 02:34:00,51.4,48.6,29.94,NNE,22,0.0,-999.0,90,0.04,,,0.67,open2300 v1.10,2013-04-19 07:34:00,
2013-04-19 02:39:00,51.3,48.4,29.95,North,0,10.3,-999.0,90,0.00,,,0.67,open2300 v1.10,2013-04-19 07:39:00,
2013-04-19 02:49:00,50.9,48.0,29.95,NNE,22,17.2,-999.0,90,0.00,,,0.67,open2300 v1.10,2013-04-19 07:49:00,
2013-04-19 02:54:00,50.5,47.7,29.95,NE,45,0.0,-999.0,90,0.00,,,0.67,open2300 v1.10,2013-04-19 07:54:00,
2013-04-19 02:59:00,50.2,47.3,29.95,ESE,112,6.9,-999.0,90,0.00,,,0.67,open2300 v1.10,2013-04-19 07:59:00,
2013-04-19 03:09:00,50.2,47.3,29.96,NNE,22,0.0,-999.0,90,0.00,,,0.67,open2300 v1.10,2013-04-19 08:09:00,
2013-04-19 03:14:00,50.0,47.1,29.96,WNW,292,0.0,-999.0,90,0.00,,,0.67,open2300 v1.10,2013-04-19 08:14:00,
2013-04-19 03:19:00,49.8,47.0,29.96,SE,135,0.0,-999.0,90,0.00,,,0.67,open2300 v1.10,2013-04-19 08:19:00,
2013-04-19 03:24:00,49.6,46.5,29.97,NNE,22,0.0,-999.0,89,0.00,,,0.67,open2300 v1.10,2013-04-19 08:24:00,
2013-04-19 03:29:00,49.6,46.8,29.97,East,90,0.0,-999.0,90,0.00,,,0.67,open2300 v1.10,2013-04-19 08:29:00,
2013-04-19 03:34:00,49.6,46.5,29.96,ESE,112,1.8,-999.0,89,0.00,,,0.67,open2300 v1.10,2013-04-19 08:34:00,
2013-04-19 03:39:00,49.3,46.2,29.95,East,90,0.0,-999.0,89,0.00,,,0.67,open2300 v1.10,2013-04-19 08:39:00,
2013-04-19 03:49:00,49.1,46.0,29.96,NNW,337,5.8,-999.0,89,0.00,,,0.67,open2300 v1.10,2013-04-19 08:49:00,
2013-04-19 03:54:00,48.9,45.8,29.96,NE,45,0.0,-999.0,89,0.00,,,0.67,open2300 v1.10,2013-04-19 08:54:00,
2013-04-19 03:59:00,48.7,45.7,29.96,North,0,4.0,-999.0,89,0.00,,,0.67,open2300 v1.10,2013-04-19 08:59:00,
2013-04-19 04:09:00,48.6,45.5,29.98,North,0,0.0,-999.0,89,0.00,,,0.67,open2300 v1.10,2013-04-19 09:09:00,
2013-04-19 04:14:00,48.4,45.3,29.99,NNE,22,0.0,-999.0,89,0.00,,,0.67,open2300 v1.10,2013-04-19 09:14:00,
2013-04-19 04:19:00,48.4,45.3,29.98,NNE,22,4.0,-999.0,89,0.00,,,0.67,open2300 v1.10,2013-04-19 09:19:00,
2013-04-19 04:24:00,48.2,45.2,29.98,NW,315,3.8,-999.0,89,0.00,,,0.67,open2300 v1.10,2013-04-19 09:24:00,
2013-04-19 04:29:00,48.2,45.2,29.99,North,0,4.2,-999.0,89,0.00,,,0.67,open2300 v1.10,2013-04-19 09:29:00,
2013-04-19 04:34:00,48.2,44.8,29.99,ENE,67,6.3,-999.0,88,0.00,,,0.67,open2300 v1.10,2013-04-19 09:34:00,
2013-04-19 04:39:00,48.4,45.0,29.99,NE,45,5.8,-999.0,88,0.00,,,0.67,open2300 v1.10,2013-04-19 09:39:00,
2013-04-19 04:49:00,48.4,45.0,30.00,NE,45,4.9,-999.0,88,0.00,,,0.67,open2300 v1.10,2013-04-19 09:49:00,
2013-04-19 04:54:00,48.0,44.3,30.00,North,0,11.0,-999.0,87,0.00,,,0.67,open2300 v1.10,2013-04-19 09:54:00,
2013-04-19 04:59:00,48.0,44.3,30.01,NE,45,8.3,-999.0,87,0.00,,,0.67,open2300 v1.10,2013-04-19 09:59:00,
2013-04-19 05:09:00,47.8,44.2,30.01,NE,45,6.5,-999.0,87,0.00,,,0.67,open2300 v1.10,2013-04-19 10:09:00,
2013-04-19 05:14:00,47.8,44.2,30.02,NE,45,7.8,-999.0,87,0.00,,,0.67,open2300 v1.10,2013-04-19 10:14:00,
2013-04-19 05:19:00,47.7,43.7,30.02,NE,45,3.4,-999.0,86,0.00,,,0.67,open2300 v1.10,2013-04-19 10:19:00,
2013-04-19 05:24:00,47.5,43.5,30.01,NNE,22,3.1,-999.0,86,0.00,,,0.67,open2300 v1.10,2013-04-19 10:24:00,
2013-04-19 05:29:00,47.5,43.5,30.02,ESE,112,6.5,-999.0,86,0.00,,,0.67,open2300 v1.10,2013-04-19 10:29:00,
2013-04-19 05:34:00,47.5,43.5,30.03,NE,45,6.9,-999.0,86,0.00,,,0.67,open2300 v1.10,2013-04-19 10:34:00,
2013-04-19 05:39:00,47.5,43.5,30.02,ENE,67,10.1,-999.0,86,0.00,,,0.67,open2300 v1.10,2013-04-19 10:39:00,
2013-04-19 05:44:00,47.5,43.5,30.02,NNE,22,4.9,-999.0,86,0.00,,,0.67,open2300 v1.10,2013-04-19 10:44:00,
2013-04-19 05:54:00,47.1,42.8,30.02,ENE,67,7.6,-999.0,85,0.00,,,0.67,open2300 v1.10,2013-04-19 10:54:00,
2013-04-19 05:59:00,46.9,42.4,30.02,ESE,112,2.0,-999.0,84,0.00,,,0.67,open2300 v1.10,2013-04-19 10:59:00,
2013-04-19 06:09:00,46.6,42.0,30.02,NE,45,4.0,-999.0,84,0.00,,,0.67,open2300 v1.10,2013-04-19 11:09:00,
2013-04-19 06:14:00,46.8,42.2,30.02,ENE,67,7.8,-999.0,84,0.00,,,0.67,open2300 v1.10,2013-04-19 11:14:00,
2013-04-19 06:19:00,46.8,42.2,30.02,SE,135,4.9,-999.0,84,0.00,,,0.67,open2300 v1.10,2013-04-19 11:19:00,
2013-04-19 06:29:00,46.2,41.4,30.02,North,0,2.7,-999.0,83,0.00,,,0.67,open2300 v1.10,2013-04-19 11:29:00,
2013-04-19 06:34:00,46.2,41.4,30.02,NNE,22,6.9,-999.0,83,0.00,,,0.67,open2300 v1.10,2013-04-19 11:34:00,
2013-04-19 06:39:00,46.0,41.2,30.04,SSE,157,0.0,-999.0,83,0.00,,,0.67,open2300 v1.10,2013-04-19 11:39:00,
2013-04-19 06:49:00,45.9,41.3,30.04,ENE,67,3.1,-999.0,84,0.00,,,0.67,open2300 v1.10,2013-04-19 11:49:00,
2013-04-19 06:54:00,46.0,41.5,30.04,WNW,292,8.3,-999.0,84,0.00,,,0.67,open2300 v1.10,2013-04-19 11:54:00,
2013-04-19 06:59:00,45.9,41.3,30.05,NNW,337,7.6,-999.0,84,0.00,,,0.67,open2300 v1.10,2013-04-19 11:59:00,
2013-04-19 07:09:00,45.9,41.3,30.06,NE,45,4.5,-999.0,84,0.00,,,0.67,open2300 v1.10,2013-04-19 12:09:00,
2013-04-19 07:14:00,45.7,40.8,30.07,NNE,22,0.7,-999.0,83,0.00,,,0.67,open2300 v1.10,2013-04-19 12:14:00,
2013-04-19 07:19:00,45.7,40.8,30.07,NNW,337,8.1,-999.0,83,0.00,,,0.67,open2300 v1.10,2013-04-19 12:19:00,
2013-04-19 07:24:00,45.7,40.8,30.07,North,0,0.0,-999.0,83,0.00,,,0.67,open2300 v1.10,2013-04-19 12:24:00,
2013-04-19 07:29:00,45.7,40.8,30.07,ENE,67,0.0,-999.0,83,0.00,,,0.67,open2300 v1.10,2013-04-19 12:29:00,
2013-04-19 07:39:00,45.7,40.8,30.07,NNE,22,1.8,-999.0,83,0.00,,,0.67,open2300 v1.10,2013-04-19 12:39:00,
2013-04-19 07:49:00,46.2,41.4,30.08,NNE,22,0.0,-999.0,83,0.00,,,0.67,open2300 v1.10,2013-04-19 12:49:00,
2013-04-19 07:54:00,46.4,41.6,30.09,North,0,0.0,-999.0,83,0.00,,,0.67,open2300 v1.10,2013-04-19 12:54:00,
2013-04-19 07:59:00,46.6,41.4,30.09,East,90,0.0,-999.0,82,0.00,,,0.67,open2300 v1.10,2013-04-19 12:59:00,
2013-04-19 08:09:00,46.9,41.7,30.09,ESE,112,0.0,-999.0,82,0.00,,,0.67,open2300 v1.10,2013-04-19 13:09:00,
2013-04-19 08:14:00,47.1,41.6,30.09,NE,45,0.0,-999.0,81,0.00,,,0.67,open2300 v1.10,2013-04-19 13:14:00,
2013-04-19 08:19:00,47.7,41.8,30.10,NNE,22,2.9,-999.0,80,0.00,,,0.67,open2300 v1.10,2013-04-19 13:19:00,
2013-04-19 08:24:00,48.0,41.8,30.10,NW,315,1.6,-999.0,79,0.00,,,0.67,open2300 v1.10,2013-04-19 13:24:00,
2013-04-19 08:34:00,48.0,41.1,30.11,NNW,337,5.4,-999.0,77,0.00,,,0.67,open2300 v1.10,2013-04-19 13:34:00,
2013-04-19 08:39:00,48.0,41.1,30.10,NE,45,6.9,-999.0,77,0.00,,,0.67,open2300 v1.10,2013-04-19 13:39:00,
2013-04-19 08:49:00,48.0,41.1,30.11,North,0,3.4,-999.0,77,0.00,,,0.67,open2300 v1.10,2013-04-19 13:49:00,
2013-04-19 08:54:00,48.0,41.1,30.09,SE,135,3.1,-999.0,77,0.00,,,0.67,open2300 v1.10,2013-04-19 13:54:00,
2013-04-19 08:59:00,48.0,41.1,30.10,NE,45,0.0,-999.0,77,0.00,,,0.67,open2300 v1.10,2013-04-19 13:59:00,
2013-04-19 09:09:00,48.0,40.7,30.09,NE,45,3.1,-999.0,76,0.00,,,0.67,open2300 v1.10,2013-04-19 14:09:00,
2013-04-19 09:14:00,48.0,40.7,30.11,ENE,67,6.0,-999.0,76,0.00,,,0.67,open2300 v1.10,2013-04-19 14:14:00,
2013-04-19 09:19:00,47.7,40.4,30.11,East,90,0.0,-999.0,76,0.00,,,0.67,open2300 v1.10,2013-04-19 14:19:00,
2013-04-19 09:24:00,47.7,40.4,30.12,NNW,337,0.0,-999.0,76,0.00,,,0.67,open2300 v1.10,2013-04-19 14:24:00,
2013-04-19 09:29:00,47.7,40.4,30.12,North,0,8.3,-999.0,76,0.00,,,0.67,open2300 v1.10,2013-04-19 14:29:00,
2013-04-19 09:34:00,48.0,40.4,30.10,NE,45,8.3,-999.0,75,0.00,,,0.67,open2300 v1.10,2013-04-19 14:34:00,
2013-04-19 09:39:00,48.0,40.4,30.13,North,0,10.1,-999.0,75,0.00,,,0.67,open2300 v1.10,2013-04-19 14:39:00,
2013-04-19 09:49:00,48.4,41.1,30.11,NNW,337,0.0,-999.0,76,0.00,,,0.67,open2300 v1.10,2013-04-19 14:49:00,
2013-04-19 09:54:00,48.7,41.8,30.13,NW,315,0.0,-999.0,77,0.00,,,0.67,open2300 v1.10,2013-04-19 14:54:00,
2013-04-19 09:59:00,49.3,41.8,30.11,East,90,2.9,-999.0,75,0.00,,,0.67,open2300 v1.10,2013-04-19 14:59:00,
2013-04-19 10:09:00,49.3,41.3,30.09,East,90,4.7,-999.0,74,0.00,,,0.67,open2300 v1.10,2013-04-19 15:09:00,
2013-04-19 10:19:00,49.6,41.7,30.13,WNW,292,0.0,-999.0,74,0.00,,,0.67,open2300 v1.10,2013-04-19 15:19:00,
2013-04-19 10:24:00,49.8,41.8,30.13,ESE,112,0.0,-999.0,74,0.00,,,0.67,open2300 v1.10,2013-04-19 15:24:00,
2013-04-19 10:29:00,50.0,41.7,30.13,North,0,1.6,-999.0,73,0.00,,,0.67,open2300 v1.10,2013-04-19 15:29:00,
2013-04-19 10:34:00,50.4,42.0,30.13,North,0,0.0,-999.0,73,0.00,,,0.67,open2300 v1.10,2013-04-19 15:34:00,
2013-04-19 10:39:00,50.7,42.4,30.14,NW,315,0.0,-999.0,73,0.00,,,0.67,open2300 v1.10,2013-04-19 15:39:00,
2013-04-19 10:44:00,50.9,42.2,30.14,NNW,337,7.4,-999.0,72,0.00,,,0.67,open2300 v1.10,2013-04-19 15:44:00,
2013-04-19 10:49:00,51.4,42.1,30.15,SSW,202,0.0,-999.0,70,0.00,,,0.67,open2300 v1.10,2013-04-19 15:49:00,
2013-04-19 10:54:00,51.6,42.3,30.14,ENE,67,0.0,-999.0,70,0.00,,,0.67,open2300 v1.10,2013-04-19 15:54:00,
2013-04-19 10:59:00,52.0,42.6,30.14,NNW,337,7.4,-999.0,70,0.00,,,0.67,open2300 v1.10,2013-04-19 15:59:00,
2013-04-19 11:09:00,53.2,43.3,30.15,NNE,22,0.0,-999.0,69,0.00,,,0.67,open2300 v1.10,2013-04-19 16:09:00,
2013-04-19 11:14:00,53.2,42.5,30.15,North,0,3.4,-999.0,67,0.00,,,0.67,open2300 v1.10,2013-04-19 16:14:00,
2013-04-19 11:19:00,53.8,43.4,30.14,ESE,112,2.7,-999.0,68,0.00,,,0.67,open2300 v1.10,2013-04-19 16:19:00,
2013-04-19 11:24:00,54.1,43.4,30.14,WNW,292,5.4,-999.0,67,0.00,,,0.67,open2300 v1.10,2013-04-19 16:24:00,
2013-04-19 11:29:00,54.5,43.3,30.14,North,0,0.0,-999.0,66,0.00,,,0.67,open2300 v1.10,2013-04-19 16:29:00,
2013-04-19 11:39:00,55.4,43.0,30.13,ESE,112,0.0,-999.0,63,0.00,,,0.67,open2300 v1.10,2013-04-19 16:39:00,
2013-04-19 11:49:00,55.2,41.6,30.13,NE,45,1.6,-999.0,60,0.00,,,0.67,open2300 v1.10,2013-04-19 16:49:00,
2013-04-19 11:54:00,55.2,42.0,30.13,NNW,337,2.5,-999.0,61,0.00,,,0.67,open2300 v1.10,2013-04-19 16:54:00,
2013-04-19 11:59:00,55.2,42.8,30.14,North,0,0.0,-999.0,63,0.00,,,0.67,open2300 v1.10,2013-04-19 16:59:00,
2013-04-19 12:09:00,55.6,42.3,30.14,SE,135,0.0,-999.0,61,0.00,,,0.67,open2300 v1.10,2013-04-19 17:09:00,
2013-04-19 12:14:00,55.6,42.3,30.15,North,0,9.4,-999.0,61,0.00,,,0.67,open2300 v1.10,2013-04-19 17:14:00,
2013-04-19 12:19:00,55.8,42.5,30.16,North,0,0.0,-999.0,61,0.00,,,0.67,open2300 v1.10,2013-04-19 17:19:00,
2013-04-19 12:24:00,55.9,42.3,30.14,NNW,337,7.2,-999.0,60,0.00,,,0.67,open2300 v1.10,2013-04-19 17:24:00,
2013-04-19 12:29:00,55.9,41.8,30.13,NNE,22,0.0,-999.0,59,0.00,,,0.67,open2300 v1.10,2013-04-19 17:29:00,
2013-04-19 12:34:00,55.8,41.1,30.14,NNW,337,0.9,-999.0,58,0.00,,,0.67,open2300 v1.10,2013-04-19 17:34:00,
2013-04-19 12:39:00,55.6,41.4,30.12,NW,315,6.0,-999.0,59,0.00,,,0.67,open2300 v1.10,2013-04-19 17:39:00,
2013-04-19 12:49:00,55.0,40.5,30.12,NE,45,0.0,-999.0,58,0.00,,,0.67,open2300 v1.10,2013-04-19 17:49:00,
2013-04-19 12:54:00,55.0,41.4,30.13,NNW,337,2.2,-999.0,60,0.00,,,0.67,open2300 v1.10,2013-04-19 17:54:00,
2013-04-19 12:59:00,55.6,41.1,30.12,NE,45,0.0,-999.0,59,0.00,,,0.67,open2300 v1.10,2013-04-19 17:59:00,
2013-04-19 13:09:00,56.8,42.2,30.11,NNE,22,0.0,-999.0,58,0.00,,,0.67,open2300 v1.10,2013-04-19 18:09:00,
2013-04-19 13:14:00,57.6,43.4,30.10,North,0,2.9,-999.0,59,0.00,,,0.67,open2300 v1.10,2013-04-19 18:14:00,
2013-04-19 13:24:00,58.8,43.6,30.11,West,270,0.0,-999.0,57,0.00,,,0.67,open2300 v1.10,2013-04-19 18:24:00,
2013-04-19 13:29:00,59.4,43.1,30.10,ENE,67,2.0,-999.0,55,0.00,,,0.67,open2300 v1.10,2013-04-19 18:29:00,
2013-04-19 13:34:00,59.2,42.0,30.09,East,90,6.3,-999.0,53,0.00,,,0.67,open2300 v1.10,2013-04-19 18:34:00,
2013-04-19 13:39:00,58.8,40.8,30.10,ENE,67,8.5,-999.0,51,0.00,,,0.67,open2300 v1.10,2013-04-19 18:39:00,
2013-04-19 13:44:00,58.3,40.8,30.10,NW,315,0.0,-999.0,52,0.00,,,0.67,open2300 v1.10,2013-04-19 18:44:00,
2013-04-19 13:49:00,57.9,40.4,30.09,NE,45,0.0,-999.0,52,0.00,,,0.67,open2300 v1.10,2013-04-19 18:49:00,
2013-04-19 13:54:00,57.7,40.3,30.09,ENE,67,0.0,-999.0,52,0.00,,,0.67,open2300 v1.10,2013-04-19 18:54:00,
2013-04-19 13:59:00,57.9,40.9,30.09,East,90,0.7,-999.0,53,0.00,,,0.67,open2300 v1.10,2013-04-19 18:59:00,
2013-04-19 14:09:00,58.8,41.2,30.09,North,0,5.8,-999.0,52,0.00,,,0.67,open2300 v1.10,2013-04-19 19:09:00,
2013-04-19 14:14:00,58.8,39.7,30.08,NE,45,0.0,-999.0,49,0.00,,,0.67,open2300 v1.10,2013-04-19 19:14:00,
2013-04-19 14:19:00,58.6,39.6,30.09,NNE,22,0.7,-999.0,49,0.00,,,0.67,open2300 v1.10,2013-04-19 19:19:00,
2013-04-19 14:24:00,58.1,39.1,30.09,NNE,22,2.5,-999.0,49,0.00,,,0.67,open2300 v1.10,2013-04-19 19:24:00,
2013-04-19 14:34:00,57.9,40.0,30.08,North,0,0.0,-999.0,51,0.00,,,0.67,open2300 v1.10,2013-04-19 19:34:00,
2013-04-19 14:39:00,57.9,40.0,30.09,NE,45,1.1,-999.0,51,0.00,,,0.67,open2300 v1.10,2013-04-19 19:39:00,
2013-04-19 14:49:00,58.3,39.2,30.09,ENE,67,0.0,-999.0,49,0.00,,,0.67,open2300 v1.10,2013-04-19 19:49:00,
2013-04-19 14:54:00,58.3,38.7,30.09,NNW,337,9.2,-999.0,48,0.00,,,0.67,open2300 v1.10,2013-04-19 19:54:00,
2013-04-19 14:59:00,57.9,38.9,30.09,NW,315,10.5,-999.0,49,0.00,,,0.67,open2300 v1.10,2013-04-19 19:59:00,
2013-04-19 15:09:00,57.6,38.6,30.09,WSW,247,0.0,-999.0,49,0.00,,,0.67,open2300 v1.10,2013-04-19 20:09:00,
2013-04-19 15:14:00,57.6,38.6,30.09,NNW,337,11.6,-999.0,49,0.00,,,0.67,open2300 v1.10,2013-04-19 20:14:00,
2013-04-19 15:19:00,57.4,38.4,30.10,North,0,2.7,-999.0,49,0.00,,,0.67,open2300 v1.10,2013-04-19 20:19:00,
2013-04-19 15:24:00,57.6,39.2,30.09,NW,315,0.0,-999.0,50,0.00,,,0.67,open2300 v1.10,2013-04-19 20:24:00,
2013-04-19 15:29:00,57.7,39.3,30.10,NNE,22,0.0,-999.0,50,0.00,,,0.67,open2300 v1.10,2013-04-19 20:29:00,
2013-04-19 15:34:00,57.7,38.8,30.09,NNE,22,10.7,-999.0,49,0.00,,,0.67,open2300 v1.10,2013-04-19 20:34:00,
2013-04-19 15:39:00,57.7,38.8,30.10,NNE,22,0.2,-999.0,49,0.00,,,0.67,open2300 v1.10,2013-04-19 20:39:00,
2013-04-19 15:44:00,57.7,38.8,30.10,WNW,292,6.9,-999.0,49,0.00,,,0.67,open2300 v1.10,2013-04-19 20:44:00,
2013-04-19 15:49:00,57.6,38.6,30.09,ENE,67,4.5,-999.0,49,0.00,,,0.67,open2300 v1.10,2013-04-19 20:49:00,
2013-04-19 15:54:00,57.6,38.0,30.09,NE,45,0.0,-999.0,48,0.00,,,0.67,open2300 v1.10,2013-04-19 20:54:00,
2013-04-19 15:59:00,57.4,37.8,30.09,North,0,0.0,-999.0,48,0.00,,,0.67,open2300 v1.10,2013-04-19 20:59:00,
2013-04-19 16:09:00,57.6,39.2,30.10,NNW,337,0.0,-999.0,50,0.00,,,0.67,open2300 v1.10,2013-04-19 21:09:00,
2013-04-19 16:14:00,57.6,38.6,30.10,NW,315,3.4,-999.0,49,0.00,,,0.67,open2300 v1.10,2013-04-19 21:14:00,
2013-04-19 16:19:00,57.7,39.3,30.09,ESE,112,0.0,-999.0,50,0.00,,,0.67,open2300 v1.10,2013-04-19 21:19:00,
2013-04-19 16:24:00,57.9,38.9,30.09,ESE,112,11.6,-999.0,49,0.00,,,0.67,open2300 v1.10,2013-04-19 21:24:00,
2013-04-19 16:34:00,58.1,39.1,30.09,North,0,6.7,-999.0,49,0.00,,,0.67,open2300 v1.10,2013-04-19 21:34:00,
2013-04-19 16:39:00,57.9,40.0,30.09,WNW,292,0.0,-999.0,51,0.00,,,0.67,open2300 v1.10,2013-04-19 21:39:00,
2013-04-19 16:44:00,58.1,40.1,30.09,North,0,5.6,-999.0,51,0.00,,,0.67,open2300 v1.10,2013-04-19 21:44:00,
2013-04-19 16:49:00,58.1,40.1,30.09,NNW,337,13.2,-999.0,51,0.00,,,0.67,open2300 v1.10,2013-04-19 21:49:00,
2013-04-19 16:54:00,58.1,39.7,30.09,SE,135,10.5,-999.0,50,0.00,,,0.67,open2300 v1.10,2013-04-19 21:54:00,
2013-04-19 16:59:00,58.1,39.7,30.09,WNW,292,3.4,-999.0,50,0.00,,,0.67,open2300 v1.10,2013-04-19 21:59:00,
2013-04-19 17:09:00,58.1,39.7,30.09,North,0,16.5,-999.0,50,0.00,,,0.67,open2300 v1.10,2013-04-19 22:09:00,
2013-04-19 17:14:00,57.9,39.5,30.08,ENE,67,0.0,-999.0,50,0.00,,,0.67,open2300 v1.10,2013-04-19 22:14:00,
2013-04-19 17:19:00,57.7,39.3,30.08,East,90,0.0,-999.0,50,0.00,,,0.67,open2300 v1.10,2013-04-19 22:19:00,
2013-04-19 17:24:00,57.6,39.2,30.07,NNE,22,0.0,-999.0,50,0.00,,,0.67,open2300 v1.10,2013-04-19 22:24:00,
2013-04-19 17:29:00,57.6,38.6,30.07,ESE,112,7.6,-999.0,49,0.00,,,0.67,open2300 v1.10,2013-04-19 22:29:00,
2013-04-19 17:34:00,57.4,39.0,30.08,SSE,157,0.0,-999.0,50,0.00,,,0.67,open2300 v1.10,2013-04-19 22:34:00,
2013-04-19 17:39:00,57.0,38.7,30.08,NNE,22,11.9,-999.0,50,0.00,,,0.67,open2300 v1.10,2013-04-19 22:39:00,
2013-04-19 17:44:00,57.0,38.7,30.08,North,0,5.1,-999.0,50,0.00,,,0.67,open2300 v1.10,2013-04-19 22:44:00,
2013-04-19 17:49:00,57.0,38.7,30.08,ESE,112,4.9,-999.0,50,0.00,,,0.67,open2300 v1.10,2013-04-19 22:49:00,
2013-04-19 17:54:00,57.0,39.1,30.08,North,0,5.6,-999.0,51,0.00,,,0.67,open2300 v1.10,2013-04-19 22:54:00,
2013-04-19 17:59:00,56.8,38.5,30.08,ESE,112,1.6,-999.0,50,0.00,,,0.67,open2300 v1.10,2013-04-19 22:59:00,
2013-04-19 18:09:00,56.8,38.5,30.09,NNE,22,0.4,-999.0,50,0.00,,,0.67,open2300 v1.10,2013-04-19 23:09:00,
2013-04-19 18:14:00,56.8,38.5,30.09,NNE,22,0.0,-999.0,50,0.00,,,0.67,open2300 v1.10,2013-04-19 23:14:00,
2013-04-19 18:19:00,56.5,38.1,30.10,NNE,22,8.9,-999.0,50,0.00,,,0.67,open2300 v1.10,2013-04-19 23:19:00,
2013-04-19 18:24:00,56.3,38.4,30.10,East,90,9.6,-999.0,51,0.00,,,0.67,open2300 v1.10,2013-04-19 23:24:00,
2013-04-19 18:29:00,56.3,37.4,30.10,East,90,9.4,-999.0,49,0.00,,,0.67,open2300 v1.10,2013-04-19 23:29:00,
2013-04-19 18:34:00,55.9,37.0,30.10,ESE,112,3.8,-999.0,49,0.00,,,0.67,open2300 v1.10,2013-04-19 23:34:00,
2013-04-19 18:39:00,55.8,37.4,30.10,NE,45,3.4,-999.0,50,0.00,,,0.67,open2300 v1.10,2013-04-19 23:39:00,
2013-04-19 18:49:00,55.2,36.9,30.10,East,90,4.7,-999.0,50,0.00,,,0.67,open2300 v1.10,2013-04-19 23:49:00,
2013-04-19 18:54:00,55.0,37.2,30.11,NNE,22,0.0,-999.0,51,0.00,,,0.67,open2300 v1.10,2013-04-19 23:54:00,
2013-04-19 18:59:00,54.9,37.0,30.11,ENE,67,0.2,-999.0,51,0.00,,,0.67,open2300 v1.10,2013-04-19 23:59:00,
2013-04-19 19:09:00,54.5,37.2,30.12,SE,135,0.0,-999.0,52,0.00,,,0.67,open2300 v1.10,2013-04-20 00:09:00,
2013-04-19 19:14:00,54.3,37.5,30.12,ESE,112,1.8,-999.0,53,0.00,,,0.67,open2300 v1.10,2013-04-20 00:14:00,
2013-04-19 19:19:00,54.3,37.5,30.12,East,90,0.0,-999.0,53,0.00,,,0.67,open2300 v1.10,2013-04-20 00:19:00,
2013-04-19 19:24:00,54.1,37.8,30.12,ENE,67,0.0,-999.0,54,0.00,,,0.67,open2300 v1.10,2013-04-20 00:24:00,
2013-04-19 19:29:00,54.0,37.6,30.12,ESE,112,0.0,-999.0,54,0.00,,,0.67,open2300 v1.10,2013-04-20 00:29:00,
2013-04-19 19:34:00,53.8,37.5,30.13,ESE,112,0.0,-999.0,54,0.00,,,0.67,open2300 v1.10,2013-04-20 00:34:00,
2013-04-19 19:39:00,53.4,37.6,30.13,NE,45,0.0,-999.0,55,0.00,,,0.67,open2300 v1.10,2013-04-20 00:39:00,
2013-04-19 19:44:00,53.2,37.4,30.13,NE,45,0.0,-999.0,55,0.00,,,0.67,open2300 v1.10,2013-04-20 00:44:00,
2013-04-19 19:49:00,52.9,37.5,30.13,NE,45,0.0,-999.0,56,0.00,,,0.67,open2300 v1.10,2013-04-20 00:49:00,
2013-04-19 19:54:00,52.9,37.5,30.13,NE,45,0.0,-999.0,56,0.00,,,0.67,open2300 v1.10,2013-04-20 00:54:00,
2013-04-19 19:59:00,52.7,37.8,30.13,NE,45,0.0,-999.0,57,0.00,,,0.67,open2300 v1.10,2013-04-20 00:59:00,
2013-04-19 20:09:00,52.3,37.5,30.14,NE,45,0.0,-999.0,57,0.00,,,0.67,open2300 v1.10,2013-04-20 01:09:00,
2013-04-19 20:14:00,52.3,37.5,30.14,NE,45,0.0,-999.0,57,0.00,,,0.67,open2300 v1.10,2013-04-20 01:14:00,
2013-04-19 20:19:00,52.2,37.7,30.14,NE,45,0.0,-999.0,58,0.00,,,0.67,open2300 v1.10,2013-04-20 01:19:00,
2013-04-19 20:24:00,52.0,37.6,30.15,NE,45,0.0,-999.0,58,0.00,,,0.67,open2300 v1.10,2013-04-20 01:24:00,
2013-04-19 20:29:00,51.8,37.4,30.15,NE,45,0.0,-999.0,58,0.00,,,0.67,open2300 v1.10,2013-04-20 01:29:00,
2013-04-19 20:34:00,51.6,37.7,30.15,NE,45,0.0,-999.0,59,0.00,,,0.67,open2300 v1.10,2013-04-20 01:34:00,
2013-04-19 20:39:00,51.6,38.1,30.15,NE,45,0.0,-999.0,60,0.00,,,0.67,open2300 v1.10,2013-04-20 01:39:00,
2013-04-19 20:44:00,51.4,38.0,30.15,ESE,112,0.0,-999.0,60,0.00,,,0.67,open2300 v1.10,2013-04-20 01:44:00,
2013-04-19 20:49:00,51.3,38.2,30.16,ESE,112,0.0,-999.0,61,0.00,,,0.67,open2300 v1.10,2013-04-20 01:49:00,
2013-04-19 20:54:00,51.1,38.0,30.16,East,90,0.0,-999.0,61,0.00,,,0.67,open2300 v1.10,2013-04-20 01:54:00,
2013-04-19 20:59:00,50.7,37.7,30.16,East,90,0.0,-999.0,61,0.00,,,0.67,open2300 v1.10,2013-04-20 01:59:00,
2013-04-19 21:09:00,50.5,37.6,30.17,ENE,67,0.0,-999.0,61,0.00,,,0.67,open2300 v1.10,2013-04-20 02:09:00,
2013-04-19 21:14:00,50.5,38.0,30.17,NE,45,0.0,-999.0,62,0.00,,,0.67,open2300 v1.10,2013-04-20 02:14:00,
2013-04-19 21:19:00,50.2,37.6,30.17,NE,45,0.0,-999.0,62,0.00,,,0.67,open2300 v1.10,2013-04-20 02:19:00,
2013-04-19 21:24:00,50.2,37.6,30.17,NE,45,0.0,-999.0,62,0.00,,,0.67,open2300 v1.10,2013-04-20 02:24:00,
2013-04-19 21:34:00,49.8,37.7,30.17,NNE,22,0.0,-999.0,63,0.00,,,0.67,open2300 v1.10,2013-04-20 02:34:00,
2013-04-19 21:39:00,49.8,37.7,30.18,NNE,22,0.0,-999.0,63,0.00,,,0.67,open2300 v1.10,2013-04-20 02:39:00,
2013-04-19 21:44:00,49.6,37.5,30.17,East,90,0.0,-999.0,63,0.00,,,0.67,open2300 v1.10,2013-04-20 02:44:00,
2013-04-19 21:49:00,49.6,37.5,30.17,ESE,112,0.4,-999.0,63,0.00,,,0.67,open2300 v1.10,2013-04-20 02:49:00,
2013-04-19 21:59:00,49.3,37.6,30.18,ENE,67,0.0,-999.0,64,0.00,,,0.67,open2300 v1.10,2013-04-20 02:59:00,
2013-04-19 22:09:00,49.3,37.6,30.18,East,90,0.0,-999.0,64,0.00,,,0.51,open2300 v1.10,2013-04-20 03:09:00,
2013-04-19 22:14:00,49.1,37.4,30.18,East,90,0.0,-999.0,64,0.00,,,0.51,open2300 v1.10,2013-04-20 03:14:00,
2013-04-19 22:19:00,49.1,37.4,30.18,East,90,0.0,-999.0,64,0.00,,,0.51,open2300 v1.10,2013-04-20 03:19:00,
2013-04-19 22:24:00,48.9,37.2,30.18,East,90,0.0,-999.0,64,0.00,,,0.51,open2300 v1.10,2013-04-20 03:24:00,
2013-04-19 22:29:00,48.9,37.2,30.18,ESE,112,0.0,-999.0,64,0.00,,,0.51,open2300 v1.10,2013-04-20 03:29:00,
2013-04-19 22:34:00,48.9,37.2,30.19,East,90,0.0,-999.0,64,0.00,,,0.51,open2300 v1.10,2013-04-20 03:34:00,
2013-04-19 22:39:00,48.9,37.2,30.19,East,90,0.0,-999.0,64,0.00,,,0.51,open2300 v1.10,2013-04-20 03:39:00,
2013-04-19 22:44:00,48.7,37.1,30.19,East,90,0.0,-999.0,64,0.00,,,0.51,open2300 v1.10,2013-04-20 03:44:00,
2013-04-19 22:49:00,48.7,37.1,30.19,East,90,0.0,-999.0,64,0.00,,,0.51,open2300 v1.10,2013-04-20 03:49:00,
2013-04-19 22:54:00,48.7,37.1,30.19,East,90,0.0,-999.0,64,0.00,,,0.51,open2300 v1.10,2013-04-20 03:54:00,
2013-04-19 22:59:00,48.7,37.1,30.19,East,90,0.0,-999.0,64,0.00,,,0.51,open2300 v1.10,2013-04-20 03:59:00,
2013-04-19 23:04:00,48.6,36.9,30.19,East,90,0.0,-999.0,64,0.00,,,0.45,open2300 v1.10,2013-04-20 04:04:00,
2013-04-19 23:09:00,48.6,36.9,30.19,East,90,0.0,-999.0,64,0.00,,,0.45,open2300 v1.10,2013-04-20 04:09:00,
2013-04-19 23:14:00,48.4,36.7,30.19,East,90,0.0,-999.0,64,0.00,,,0.45,open2300 v1.10,2013-04-20 04:14:00,
2013-04-19 23:19:00,48.2,36.6,30.19,ENE,67,0.0,-999.0,64,0.00,,,0.45,open2300 v1.10,2013-04-20 04:19:00,
2013-04-19 23:24:00,48.2,36.6,30.19,East,90,0.0,-999.0,64,0.00,,,0.45,open2300 v1.10,2013-04-20 04:24:00,
2013-04-19 23:29:00,48.2,36.6,30.19,East,90,0.0,-999.0,64,0.00,,,0.45,open2300 v1.10,2013-04-20 04:29:00,
2013-04-19 23:34:00,48.0,36.4,30.19,ENE,67,0.0,-999.0,64,0.00,,,0.45,open2300 v1.10,2013-04-20 04:34:00,
2013-04-19 23:39:00,48.0,36.4,30.20,ENE,67,0.0,-999.0,64,0.00,,,0.45,open2300 v1.10,2013-04-20 04:39:00,
2013-04-19 23:44:00,48.0,36.4,30.19,ENE,67,0.0,-999.0,64,0.00,,,0.45,open2300 v1.10,2013-04-20 04:44:00,
2013-04-19 23:49:00,48.0,36.4,30.20,ENE,67,0.0,-999.0,64,0.00,,,0.45,open2300 v1.10,2013-04-20 04:49:00,
2013-04-19 23:54:00,47.8,36.6,30.20,ENE,67,0.0,-999.0,65,0.00,,,0.45,open2300 v1.10,2013-04-20 04:54:00,
2013-04-19 23:59:00,47.8,36.6,30.20,ENE,67,0.0,-999.0,65,0.00,,,0.45,open2300 v1.10,2013-04-20 04:59:00,